Weather History for KLBF - March, 2015

Change the Weather History Date:

Monday, March 30, 2015

  Actual Average Record
Temperature  
Mean Temperature 55 °F 42 °F  
Max Temperature 78 °F 57 °F 87 °F (1943)
Min Temperature 32 °F 28 °F -6 °F (1943)
Degree Days  
Heating Degree Days 10 23  
Month to date heating degree days 648 814  
Since 1 July heating degree days 5537 5842  
Cooling Degree Days 0 0  
Month to date cooling degree days 0 0  
Year to date cooling degree days 0 0  
Growing Degree Days 5 (Base 50)    
Moisture  
Dew Point 22 °F    
Average Humidity 34    
Maximum Humidity 56    
Minimum Humidity 12    
Precipitation  
Precipitation 0.00 in 0.04 in 1.47 in (1949)
Month to date precipitation 0.01 1.00  
Year to date precipitation 0.75 1.84  
Snow  
Snow 0.00 in 0.20 in 11.70 in (1949)
Month to date snowfall 0.2 4.3  
Since 1 July snowfall 19.1 25.2  
Snow Depth 0.00 in    
Sea Level Pressure  
Sea Level Pressure 30.04 in    
Wind  
Wind Speed 9 mph (WNW)    
Max Wind Speed 23 mph    
Max Gust Speed 28 mph    
Visibility 10 miles    
Events      
T = Trace of Precipitation, MM = Missing Value Source: NWS Daily Summary

Daily Weather History Graph

Daily Weather History Graph

Search for Another Location

Airport or City:

Trip Planner

Search our weather history database for the weather conditions in past years. The results will help you decide how hot, cold, wet, or windy it might be!

Date:

Astronomy

Mar. 30, 2015 Rise Set
Actual Time 7:29 AM CDT 8:05 PM CDT
Civil Twilight 7:01 AM CDT 8:33 PM CDT
Nautical Twilight 6:29 AM CDT 9:05 PM CDT
Astronomical Twilight 5:55 AM CDT 9:39 PM CDT
Moon 3:54 PM CDT (3/30) 4:57 AM CDT (3/30)
Length of Visible Light 13h 31m
Length of Day
12h 35m
Waxing Gibbous, 81% of the Moon is Illuminated
Mar 30
Waxing Gibbous
Apr 4
Full
Apr 11
Last Quarter
Apr 18
New
Apr 25
First Quarter

Hourly Weather History & Observations

Time (CDT) Temp. Windchill Dew Point Humidity Pressure Visibility Wind Dir Wind Speed Gust Speed Precip Events Conditions
12:53 AM 34.0 °F 29.8 °F 19.9 °F 56% 30.15 in 10.0 mi ESE 4.6 mph - N/A   Clear
1:53 AM 39.9 °F 35.8 °F 18.0 °F 41% 30.13 in 10.0 mi SSE 5.8 mph - N/A   Clear
2:53 AM 41.0 °F 35.2 °F 17.1 °F 38% 30.11 in 10.0 mi South 9.2 mph - N/A   Clear
3:53 AM 41.0 °F 35.2 °F 17.1 °F 38% 30.09 in 10.0 mi South 9.2 mph - N/A   Clear
4:53 AM 42.1 °F 37.1 °F 18.0 °F 38% 30.07 in 10.0 mi SSW 8.1 mph - N/A   Clear
5:53 AM 39.9 °F 37.8 °F 19.0 °F 43% 30.06 in 10.0 mi SW 3.5 mph - N/A   Clear
6:53 AM 39.0 °F 34.0 °F 19.9 °F 46% 30.08 in 10.0 mi WSW 6.9 mph - N/A   Clear
7:53 AM 35.1 °F 32.2 °F 21.0 °F 57% 30.09 in 10.0 mi Variable 3.5 mph - N/A   Clear
8:53 AM 45.0 °F 40.1 °F 24.1 °F 44% 30.07 in 10.0 mi South 9.2 mph - N/A   Clear
9:53 AM 54.0 °F - 26.1 °F 34% 30.06 in 10.0 mi WSW 11.5 mph - N/A   Clear
10:53 AM 59.0 °F - 27.0 °F 29% 30.07 in 10.0 mi West 10.4 mph - N/A   Clear
11:53 AM 63.0 °F - 28.0 °F 27% 30.06 in 10.0 mi NNW 8.1 mph - N/A   Clear
12:53 PM 66.9 °F - 28.9 °F 24% 30.04 in 10.0 mi WNW 6.9 mph - N/A   Clear
1:53 PM 73.9 °F - 25.0 °F 16% 29.99 in 10.0 mi North 6.9 mph - N/A   Clear
2:53 PM 77.0 °F - 21.9 °F 13% 29.96 in 10.0 mi North 11.5 mph - N/A   Clear
3:53 PM 78.1 °F - 21.0 °F 12% 29.95 in 10.0 mi NW 20.7 mph 26.5 mph N/A   Clear
4:53 PM 77.0 °F - 21.9 °F 13% 29.94 in 10.0 mi NNW 13.8 mph 21.9 mph N/A   Clear
5:53 PM 75.9 °F - 23.0 °F 14% 29.94 in 10.0 mi NW 15.0 mph - N/A   Clear
6:53 PM 72.0 °F - 19.9 °F 14% 29.96 in 10.0 mi NNW 10.4 mph - N/A   Clear
7:53 PM 66.9 °F - 21.0 °F 17% 29.99 in 10.0 mi North 10.4 mph - N/A   Clear
8:53 PM 57.0 °F - 24.1 °F 28% 30.00 in 10.0 mi NE 9.2 mph - N/A   Clear
9:53 PM 52.0 °F - 25.0 °F 35% 30.02 in 10.0 mi NE 9.2 mph - N/A   Clear
10:53 PM 44.1 °F 41.5 °F 25.0 °F 47% 30.01 in 10.0 mi SE 4.6 mph - N/A   Clear
11:53 PM 41.0 °F 39.0 °F 26.1 °F 55% 30.04 in 10.0 mi NW 3.5 mph - N/A   Clear